EZY3488 LIRN-LGAV

Flight info

Callsign EZY3488
Flight time 1h 26m
Altitude 37000
Route GALTI DCT LUNAR DCT NOSTO UN7 NEMES
Aircraft A319/M-SDE3FGHIRWY/LB1

Departure

Time 2026-05-06 08:55
Airport Naples International Airport (LIRN)

Arrival

Time 2026-05-06 10:22
Airport Athens Eleftherios Venizelos International Airport (LGAV)
Time Latitude Longitude Altitude Speed Heading
2026-05-06 08:36 40.88105 14.28500 289 ft 0 kts
2026-05-06 08:48 40.88092 14.28499 289 ft 3 kts
2026-05-06 08:49 40.88069 14.28496 290 ft 3 kts
2026-05-06 08:49 40.88047 14.28498 291 ft 3 kts 336°
2026-05-06 08:49 40.88034 14.28519 291 ft 3 kts 289°
2026-05-06 08:49 40.88032 14.28532 291 ft 0 kts 269°
2026-05-06 08:52 40.88032 14.28529 291 ft 1 kts 270°
2026-05-06 08:52 40.88038 14.28503 291 ft 5 kts 287°
2026-05-06 08:52 40.88050 14.28442 291 ft 10 kts 279°
2026-05-06 08:53 40.88062 14.28347 290 ft 13 kts 278°
2026-05-06 08:53 40.88064 14.28245 288 ft 5 kts 243°
2026-05-06 08:53 40.88044 14.28201 288 ft 7 kts 240°
2026-05-06 08:53 40.88021 14.28147 289 ft 7 kts 244°
2026-05-06 08:54 40.88027 14.28090 289 ft 8 kts 308°
2026-05-06 08:54 40.88071 14.28043 288 ft 11 kts 333°
2026-05-06 08:54 40.88126 14.28066 286 ft 2 kts 55°
2026-05-06 08:54 40.88135 14.28084 286 ft 11 kts 56°
2026-05-06 08:55 40.88290 14.28411 281 ft 85 kts 58°
2026-05-06 08:55 40.88648 14.29199 277 ft 141 kts 70°
2026-05-06 08:55 40.89105 14.30186 719 ft 149 kts 54°
2026-05-06 08:55 40.89608 14.31143 1308 ft 150 kts 57°
2026-05-06 08:56 40.90104 14.32150 1917 ft 155 kts 57°
2026-05-06 08:56 40.90616 14.33196 2489 ft 163 kts 59°
2026-05-06 08:56 40.91125 14.34317 2921 ft 175 kts 60°
2026-05-06 08:56 40.91682 14.35549 3348 ft 189 kts 60°
2026-05-06 08:57 40.92279 14.36852 3774 ft 203 kts 59°
2026-05-06 08:57 40.92942 14.38274 4178 ft 219 kts 57°
2026-05-06 08:57 40.93847 14.39556 4581 ft 235 kts 30°
2026-05-06 08:57 40.95195 14.40049 5058 ft 243 kts 352°
2026-05-06 08:58 40.96508 14.39466 5871 ft 232 kts 317°
2026-05-06 08:58 40.97318 14.38089 6648 ft 219 kts 283°
2026-05-06 08:58 40.97393 14.36414 7378 ft 213 kts 254°
2026-05-06 08:58 40.96962 14.34838 8066 ft 216 kts 236°
2026-05-06 08:59 40.95960 14.33612 8564 ft 232 kts 208°
2026-05-06 08:59 40.94566 14.33171 9067 ft 251 kts 182°
2026-05-06 08:59 40.93020 14.33727 9570 ft 275 kts 153°
2026-05-06 08:59 40.91774 14.35275 10108 ft 295 kts 131°
2026-05-06 09:00 40.90768 14.37197 10687 ft 305 kts 127°
2026-05-06 09:00 40.89742 14.39322 11141 ft 320 kts 126°
2026-05-06 09:00 40.88713 14.41464 11583 ft 332 kts 126°
2026-05-06 09:00 40.87628 14.43689 12190 ft 338 kts 126°
2026-05-06 09:01 40.86512 14.45942 12882 ft 341 kts 126°
2026-05-06 09:01 40.85393 14.48179 13554 ft 344 kts 126°
2026-05-06 09:01 40.84227 14.50490 14207 ft 347 kts 126°
2026-05-06 09:01 40.83088 14.52736 14816 ft 351 kts 126°
2026-05-06 09:02 40.81903 14.55070 15420 ft 355 kts 126°
2026-05-06 09:02 40.80708 14.57414 16009 ft 358 kts 126°
2026-05-06 09:02 40.79502 14.59774 16596 ft 362 kts 127°
2026-05-06 09:02 40.78297 14.62131 17158 ft 366 kts 127°
2026-05-06 09:03 40.77042 14.64582 17726 ft 369 kts 127°
2026-05-06 09:03 40.75848 14.66913 18250 ft 373 kts 128°
2026-05-06 09:03 40.74627 14.69297 18773 ft 376 kts 128°
2026-05-06 09:03 40.73387 14.71713 19297 ft 379 kts 128°
2026-05-06 09:04 40.72147 14.74130 19818 ft 382 kts 128°
2026-05-06 09:04 40.70871 14.76614 20343 ft 385 kts 128°
2026-05-06 09:04 40.69619 14.79049 20838 ft 387 kts 128°
2026-05-06 09:04 40.68353 14.81505 21323 ft 390 kts 128°
2026-05-06 09:05 40.67042 14.84048 21824 ft 393 kts 128°
2026-05-06 09:05 40.65760 14.86556 22292 ft 397 kts 126°
2026-05-06 09:05 40.64719 14.89378 22710 ft 407 kts 111°
2026-05-06 09:05 40.64259 14.92485 23161 ft 414 kts 95°
2026-05-06 09:06 40.64381 14.95750 23652 ft 419 kts 85°
2026-05-06 09:06 40.64730 14.99030 24144 ft 422 kts 83°
2026-05-06 09:06 40.65123 15.02341 24586 ft 425 kts 83°
2026-05-06 09:06 40.65502 15.05621 25035 ft 427 kts 83°
2026-05-06 09:07 40.65862 15.08914 25489 ft 429 kts 83°
2026-05-06 09:07 40.66208 15.12225 25929 ft 431 kts 84°
2026-05-06 09:07 40.66542 15.15545 26337 ft 434 kts 84°
2026-05-06 09:07 40.66878 15.18952 26741 ft 436 kts 84°
2026-05-06 09:08 40.67204 15.22302 27145 ft 438 kts 84°
2026-05-06 09:08 40.67536 15.25739 27524 ft 441 kts 84°
2026-05-06 09:08 40.67868 15.29191 27906 ft 443 kts 84°
2026-05-06 09:08 40.68200 15.32646 28272 ft 446 kts 84°
2026-05-06 09:09 40.68523 15.36114 28616 ft 448 kts 86°
2026-05-06 09:09 40.68650 15.39630 28950 ft 449 kts 92°
2026-05-06 09:09 40.68484 15.43095 29288 ft 450 kts 99°
2026-05-06 09:09 40.68018 15.46565 29639 ft 449 kts 105°
2026-05-06 09:10 40.67297 15.50031 30008 ft 450 kts 109°
2026-05-06 09:10 40.66512 15.53442 30320 ft 452 kts 109°
2026-05-06 09:10 40.65702 15.56879 30643 ft 454 kts 109°
2026-05-06 09:10 40.64876 15.60389 30989 ft 456 kts 109°
2026-05-06 09:11 40.64070 15.63844 31345 ft 457 kts 109°
2026-05-06 09:11 40.63267 15.67315 31730 ft 457 kts 109°
2026-05-06 09:11 40.62467 15.70792 32165 ft 455 kts 109°
2026-05-06 09:11 40.61657 15.74313 32613 ft 454 kts 109°
2026-05-06 09:12 40.60870 15.77742 33042 ft 452 kts 109°
2026-05-06 09:12 40.60086 15.81160 33454 ft 450 kts 109°
2026-05-06 09:12 40.59302 15.84568 33863 ft 449 kts 109°
2026-05-06 09:12 40.58519 15.87975 34253 ft 447 kts 109°
2026-05-06 09:13 40.57737 15.91373 34613 ft 446 kts 109°
2026-05-06 09:13 40.56966 15.94718 34919 ft 445 kts 109°
2026-05-06 09:13 40.56205 15.98014 35216 ft 444 kts 109°
2026-05-06 09:13 40.55418 16.01418 35491 ft 444 kts 109°
2026-05-06 09:14 40.54635 16.04795 35714 ft 444 kts 109°
2026-05-06 09:14 40.53851 16.08177 35906 ft 446 kts 109°
2026-05-06 09:14 40.53066 16.11551 36091 ft 447 kts 109°
2026-05-06 09:14 40.52278 16.14938 36275 ft 448 kts 109°
2026-05-06 09:15 40.51483 16.18351 36457 ft 449 kts 109°
2026-05-06 09:15 40.50687 16.21757 36666 ft 450 kts 109°
2026-05-06 09:15 40.49887 16.25176 36899 ft 450 kts 109°
2026-05-06 09:15 40.49101 16.28538 37027 ft 452 kts 109°
2026-05-06 09:16 40.48291 16.31991 37025 ft 453 kts 109°
2026-05-06 09:16 40.46673 16.38873 37029 ft 453 kts 109°
2026-05-06 09:17 40.45057 16.45725 37024 ft 453 kts 109°
2026-05-06 09:17 40.43379 16.52820 37021 ft 454 kts 109°
2026-05-06 09:18 40.41621 16.60234 37018 ft 453 kts 109°
2026-05-06 09:18 40.39833 16.67747 37019 ft 454 kts 110°
2026-05-06 09:19 40.38145 16.74819 37017 ft 453 kts 110°
2026-05-06 09:19 40.36393 16.82135 37017 ft 453 kts 110°
2026-05-06 09:20 40.34619 16.89517 37016 ft 453 kts 110°
2026-05-06 09:20 40.32886 16.96712 37015 ft 453 kts 110°
2026-05-06 09:21 40.31136 17.03949 36990 ft 453 kts 110°
2026-05-06 09:21 40.29391 17.11150 37004 ft 453 kts 110°
2026-05-06 09:22 40.27642 17.18337 37021 ft 453 kts 110°
2026-05-06 09:22 40.25918 17.25409 37020 ft 454 kts 110°
2026-05-06 09:23 40.24137 17.32688 37020 ft 454 kts 109°
2026-05-06 09:23 40.22370 17.39888 37022 ft 454 kts 109°
2026-05-06 09:24 40.20600 17.47076 37024 ft 454 kts 109°
2026-05-06 09:24 40.18911 17.53920 37026 ft 454 kts 109°
2026-05-06 09:25 40.17218 17.60757 37036 ft 454 kts 109°
2026-05-06 09:25 40.15547 17.67489 37041 ft 454 kts 110°
2026-05-06 09:26 40.13869 17.74227 37038 ft 454 kts 110°
2026-05-06 09:26 40.12211 17.80870 37034 ft 454 kts 110°
2026-05-06 09:27 40.10533 17.87571 37044 ft 454 kts 110°
2026-05-06 09:27 40.08846 17.94292 37054 ft 454 kts 110°
2026-05-06 09:28 40.07148 18.01028 37053 ft 455 kts 110°
2026-05-06 09:28 40.05452 18.07745 37058 ft 455 kts 110°
2026-05-06 09:29 40.03689 18.14709 37057 ft 455 kts 110°
2026-05-06 09:29 40.01881 18.21826 37064 ft 455 kts 110°
2026-05-06 09:30 40.00035 18.29068 37065 ft 455 kts 110°
2026-05-06 09:30 39.98165 18.36391 37063 ft 456 kts 110°
2026-05-06 09:31 39.96172 18.44168 37060 ft 456 kts 109°
2026-05-06 09:31 39.94183 18.51901 37065 ft 457 kts 109°
2026-05-06 09:32 39.92182 18.59661 37069 ft 457 kts 109°
2026-05-06 09:32 39.90199 18.67329 37067 ft 457 kts 110°
2026-05-06 09:33 39.88189 18.75072 37072 ft 457 kts 110°
2026-05-06 09:33 39.86180 18.82795 37073 ft 457 kts 110°
2026-05-06 09:34 39.84168 18.90493 37068 ft 457 kts 110°
2026-05-06 09:34 39.81793 18.98054 37079 ft 457 kts 117°
2026-05-06 09:35 39.78744 19.05141 37078 ft 455 kts 125°
2026-05-06 09:35 39.75131 19.11774 37383 ft 455 kts 128°
2026-05-06 09:35 39.73261 19.15088 37178 ft 453 kts 128°
2026-05-06 09:36 39.71416 19.18361 37117 ft 453 kts 128°
2026-05-06 09:36 39.67764 19.24846 37089 ft 453 kts 128°
2026-05-06 09:37 39.64045 19.31459 37087 ft 454 kts 128°
2026-05-06 09:37 39.60390 19.37950 37088 ft 454 kts 128°
2026-05-06 09:38 39.56729 19.44440 37088 ft 454 kts 128°
2026-05-06 09:38 39.53309 19.50491 37091 ft 454 kts 128°
2026-05-06 09:39 39.49619 19.57007 37090 ft 454 kts 127°
2026-05-06 09:39 39.46010 19.63367 37094 ft 455 kts 128°
2026-05-06 09:40 39.42409 19.69702 37090 ft 455 kts 128°
2026-05-06 09:40 39.36964 19.79240 37090 ft 455 kts 128°
2026-05-06 09:41 39.33318 19.85606 37093 ft 455 kts 128°
2026-05-06 09:41 39.29742 19.91847 37089 ft 456 kts 128°
2026-05-06 09:42 39.26418 19.97640 37096 ft 456 kts 128°
2026-05-06 09:42 39.23074 20.03458 37088 ft 456 kts 128°
2026-05-06 09:43 39.19414 20.09811 37089 ft 457 kts 128°
2026-05-06 09:43 39.15801 20.16071 37094 ft 457 kts 128°
2026-05-06 09:44 39.12184 20.22329 37098 ft 457 kts 128°
2026-05-06 09:44 39.08580 20.28549 37098 ft 457 kts 128°
2026-05-06 09:45 39.05042 20.34645 37095 ft 457 kts 128°
2026-05-06 09:45 39.01679 20.40428 37098 ft 458 kts 128°
2026-05-06 09:46 38.98401 20.46057 37100 ft 457 kts 128°
2026-05-06 09:46 38.95087 20.51734 37102 ft 458 kts 127°
2026-05-06 09:47 38.91808 20.57348 37103 ft 458 kts 128°
2026-05-06 09:47 38.88513 20.62974 37106 ft 458 kts 127°
2026-05-06 09:48 38.85231 20.68570 37104 ft 458 kts 128°
2026-05-06 09:48 38.81938 20.74175 37103 ft 458 kts 128°
2026-05-06 09:49 38.78661 20.79742 37107 ft 458 kts 128°
2026-05-06 09:49 38.75408 20.85258 37110 ft 459 kts 128°
2026-05-06 09:50 38.72098 20.90862 37112 ft 459 kts 128°
2026-05-06 09:50 38.68780 20.96468 37117 ft 459 kts 128°
2026-05-06 09:51 38.65480 21.02038 37108 ft 459 kts 128°
2026-05-06 09:51 38.62201 21.07559 37110 ft 459 kts 128°
2026-05-06 09:52 38.58907 21.13096 37105 ft 459 kts 128°
2026-05-06 09:52 38.55597 21.18652 37094 ft 459 kts 128°
2026-05-06 09:53 38.52300 21.24178 37096 ft 459 kts 128°
2026-05-06 09:53 38.49007 21.29684 37090 ft 460 kts 128°
2026-05-06 09:54 38.45654 21.35283 37091 ft 460 kts 128°
2026-05-06 09:54 38.42343 21.40804 37097 ft 460 kts 128°
2026-05-06 09:55 38.38990 21.46382 37095 ft 460 kts 128°
2026-05-06 09:55 38.35644 21.51942 37090 ft 460 kts 128°
2026-05-06 09:56 38.32323 21.57452 36668 ft 453 kts 128°
2026-05-06 09:56 38.30689 21.60158 36094 ft 454 kts 128°
2026-05-06 09:56 38.29043 21.62883 35547 ft 453 kts 128°
2026-05-06 09:57 38.27392 21.65615 35024 ft 452 kts 129°
2026-05-06 09:57 38.25754 21.68323 34460 ft 452 kts 129°
2026-05-06 09:57 38.24115 21.71030 33861 ft 453 kts 129°
2026-05-06 09:57 38.22489 21.73707 33233 ft 454 kts 129°
2026-05-06 09:58 38.20859 21.76391 32595 ft 456 kts 128°
2026-05-06 09:58 38.19172 21.79165 31930 ft 457 kts 128°
2026-05-06 09:58 38.17517 21.81909 31278 ft 458 kts 126°
2026-05-06 09:58 38.16106 21.84886 30581 ft 460 kts 115°
2026-05-06 09:59 38.15104 21.88154 30069 ft 455 kts 105°
2026-05-06 09:59 38.14382 21.91447 29679 ft 449 kts 103°
2026-05-06 09:59 38.13732 21.94672 29195 ft 443 kts 102°
2026-05-06 09:59 38.13093 21.97890 28530 ft 440 kts 102°
2026-05-06 10:00 38.12459 22.01029 27866 ft 437 kts 102°
2026-05-06 10:00 38.11807 22.04205 27207 ft 434 kts 102°
2026-05-06 10:00 38.11149 22.07351 26550 ft 430 kts 102°
2026-05-06 10:00 38.10495 22.10451 25882 ft 426 kts 102°
2026-05-06 10:01 38.09833 22.13563 25224 ft 422 kts 102°
2026-05-06 10:01 38.09180 22.16626 24573 ft 419 kts 102°
2026-05-06 10:01 38.08525 22.19684 23918 ft 415 kts 102°
2026-05-06 10:01 38.07873 22.22718 23280 ft 411 kts 102°
2026-05-06 10:02 38.07236 22.25675 22652 ft 405 kts 102°
2026-05-06 10:02 38.06591 22.28682 21909 ft 402 kts 102°
2026-05-06 10:02 38.05961 22.31616 21211 ft 402 kts 102°
2026-05-06 10:02 38.05322 22.34584 20737 ft 397 kts 102°
2026-05-06 10:03 38.04689 22.37507 20331 ft 393 kts 102°
2026-05-06 10:03 38.04065 22.40384 19899 ft 389 kts 102°
2026-05-06 10:03 38.03442 22.43253 19450 ft 387 kts 102°
2026-05-06 10:03 38.02816 22.46136 19018 ft 384 kts 102°
2026-05-06 10:04 38.02203 22.48950 18579 ft 382 kts 102°
2026-05-06 10:04 38.01581 22.51807 18152 ft 379 kts 103°
2026-05-06 10:04 38.00974 22.54590 17753 ft 376 kts 103°
2026-05-06 10:04 38.00367 22.57369 17332 ft 374 kts 103°
2026-05-06 10:05 37.99757 22.60155 16936 ft 371 kts 103°
2026-05-06 10:05 37.99158 22.62891 16538 ft 368 kts 103°
2026-05-06 10:05 37.98562 22.65612 16176 ft 365 kts 104°
2026-05-06 10:05 37.97969 22.68306 15781 ft 363 kts 104°
2026-05-06 10:06 37.97371 22.71030 15386 ft 360 kts 104°
2026-05-06 10:06 37.96783 22.73698 15000 ft 358 kts 104°
2026-05-06 10:06 37.96194 22.76368 14639 ft 355 kts 104°
2026-05-06 10:06 37.95612 22.79008 14289 ft 353 kts 104°
2026-05-06 10:07 37.95039 22.81602 13935 ft 350 kts 104°
2026-05-06 10:07 37.94465 22.84200 13563 ft 347 kts 104°
2026-05-06 10:07 37.93901 22.86748 13186 ft 345 kts 104°
2026-05-06 10:07 37.93330 22.89327 12816 ft 342 kts 104°
2026-05-06 10:08 37.92759 22.91894 12436 ft 339 kts 104°
2026-05-06 10:08 37.92158 22.94601 12019 ft 336 kts 104°
2026-05-06 10:08 37.91535 22.97403 11597 ft 333 kts 104°
2026-05-06 10:08 37.90914 23.00192 11156 ft 330 kts 104°
2026-05-06 10:09 37.90294 23.02971 10705 ft 326 kts 104°
2026-05-06 10:09 37.89691 23.05673 10270 ft 323 kts 104°
2026-05-06 10:09 37.89076 23.08420 9810 ft 320 kts 104°
2026-05-06 10:09 37.88480 23.11083 9446 ft 314 kts 104°
2026-05-06 10:10 37.87899 23.13674 9252 ft 303 kts 104°
2026-05-06 10:10 37.87334 23.16185 9045 ft 292 kts 104°
2026-05-06 10:10 37.86782 23.18644 8721 ft 288 kts 104°
2026-05-06 10:10 37.86236 23.21073 8322 ft 286 kts 105°
2026-05-06 10:11 37.85702 23.23449 7936 ft 283 kts 105°
2026-05-06 10:11 37.85164 23.25842 7569 ft 281 kts 105°
2026-05-06 10:11 37.84633 23.28206 7201 ft 278 kts 105°
2026-05-06 10:11 37.84109 23.30529 6832 ft 276 kts 105°
2026-05-06 10:12 37.83584 23.32857 6469 ft 273 kts 105°
2026-05-06 10:12 37.83069 23.35126 6123 ft 271 kts 105°
2026-05-06 10:12 37.82553 23.37406 5760 ft 268 kts 105°
2026-05-06 10:12 37.82045 23.39650 5494 ft 266 kts 105°
2026-05-06 10:13 37.81535 23.41893 5371 ft 268 kts 105°
2026-05-06 10:13 37.81019 23.44163 5244 ft 268 kts 106°
2026-05-06 10:13 37.80509 23.46407 5126 ft 267 kts 105°
2026-05-06 10:13 37.79991 23.48676 5004 ft 267 kts 105°
2026-05-06 10:14 37.79478 23.50930 4880 ft 267 kts 105°
2026-05-06 10:14 37.78968 23.53169 4761 ft 267 kts 105°
2026-05-06 10:14 37.78451 23.55438 4637 ft 268 kts 105°
2026-05-06 10:14 37.77935 23.57697 4502 ft 267 kts 105°
2026-05-06 10:15 37.77425 23.59930 4354 ft 267 kts 105°
2026-05-06 10:15 37.76909 23.62192 4186 ft 266 kts 105°
2026-05-06 10:15 37.76398 23.64425 3989 ft 266 kts 106°
2026-05-06 10:15 37.75886 23.66655 3729 ft 265 kts 107°
2026-05-06 10:16 37.75374 23.68887 3436 ft 263 kts 107°
2026-05-06 10:16 37.74871 23.71075 3159 ft 260 kts 107°
2026-05-06 10:16 37.74574 23.73257 3108 ft 246 kts 85°
2026-05-06 10:16 37.75100 23.75242 3063 ft 232 kts 57°
2026-05-06 10:17 37.76129 23.76717 3024 ft 219 kts 41°
2026-05-06 10:17 37.77295 23.77859 3001 ft 214 kts 36°
2026-05-06 10:17 37.78430 23.78868 2982 ft 202 kts 35°
2026-05-06 10:17 37.79430 23.79769 2989 ft 195 kts 36°
2026-05-06 10:18 37.80416 23.80683 2989 ft 195 kts 37°
2026-05-06 10:18 37.81378 23.81594 2855 ft 195 kts 37°
2026-05-06 10:18 37.82354 23.82529 2632 ft 196 kts 37°
2026-05-06 10:18 37.83302 23.83439 2403 ft 192 kts 38°
2026-05-06 10:19 37.84226 23.84324 2246 ft 180 kts 38°
2026-05-06 10:19 37.85095 23.85157 2015 ft 172 kts 38°
2026-05-06 10:19 37.85921 23.85946 1817 ft 163 kts 38°
2026-05-06 10:19 37.86701 23.86690 1611 ft 155 kts 38°
2026-05-06 10:20 37.87442 23.87397 1432 ft 145 kts 38°
2026-05-06 10:20 37.88137 23.88059 1252 ft 135 kts 38°
2026-05-06 10:20 37.88794 23.88686 1116 ft 134 kts 38°
2026-05-06 10:20 37.89449 23.89308 976 ft 134 kts 38°
2026-05-06 10:21 37.90100 23.89940 817 ft 134 kts 39°
2026-05-06 10:21 37.90746 23.90554 658 ft 134 kts 38°
2026-05-06 10:21 37.91403 23.91171 511 ft 133 kts 39°
2026-05-06 10:21 37.92046 23.91780 368 ft 132 kts 40°
2026-05-06 10:22 37.92677 23.92390 263 ft 130 kts 39°
2026-05-06 10:22 37.93215 23.92904 259 ft 91 kts 36°
2026-05-06 10:22 37.93533 23.93224 263 ft 42 kts 54°
2026-05-06 10:22 37.93618 23.93414 264 ft 24 kts 70°
2026-05-06 10:23 37.93544 23.93495 264 ft 19 kts 208°
2026-05-06 10:23 37.93452 23.93433 262 ft 17 kts 175°
2026-05-06 10:23 37.93391 23.93504 261 ft 13 kts 127°
2026-05-06 10:23 37.93337 23.93591 260 ft 15 kts 129°
2026-05-06 10:24 37.93278 23.93687 259 ft 16 kts 127°
2026-05-06 10:24 37.93220 23.93788 260 ft 16 kts 124°
2026-05-06 10:24 37.93164 23.93887 262 ft 15 kts 126°
2026-05-06 10:24 37.93114 23.93974 266 ft 12 kts 128°
2026-05-06 10:25 37.93068 23.94049 269 ft 12 kts 128°
2026-05-06 10:25 37.93020 23.94124 271 ft 10 kts 128°
2026-05-06 10:25 37.93026 23.94179 273 ft 6 kts 49°
2026-05-06 10:25 37.93057 23.94210 274 ft 6 kts 36°
2026-05-06 10:26 37.93078 23.94230 275 ft 0 kts 37°